星链-3060 (STARLINK-3060 )

导读

STARLINK-3060是美国太空探索技术公司(SpaceX)星链星座的组网卫星,于2021年9月14日发射升空,归属Starlink Group 2-14批次。星链项目旨在构建全球卫星互联网星座,该卫星服役后承担低轨卫星通信任务,为全球偏远、基础设施薄弱区域提供宽带网络接入服务,进一步扩充了星链低轨星座的规模。

Basic Information
目录编号:
49155
目录名称:
STARLINK-3060
国际标识:
2021-082AB
轨道中心:
EARTH
卫星名称:
星链-3060
卫星全名:
星链-3060 (STARLINK-3060 )
卫星状态:
在轨 (已飞行1817 天)
发射日期:
2021-09-14 UTC
国别 :
美国 (US)
星等 :
--
Orbit Information
数据来源 国际轨道数据 AOE轨道数据
星历时间 2026-09-04T19:31:15+0800
19小时前
查看轨道信息
2026-09-02T22:00:00+0800
2天前
查看轨道信息
半长轴 6950.249km 6950.181km
偏心率 0.0002836 0.0002685
轨道倾角 70.000° 70.002°
近地点辐角 271.879° 268.457°
升交点赤经 163.654° 168.437°
平近点角 88.204° 303.915°
近地点 570.14km 570.177km
远地点 574.084km 573.911km
周期 96.108分钟 96.107分钟
每日圈数 14.983121 14.98334
Detailed Information
固有亮度:
5
最大亮度:
2.5
卫星平台:
Starlink v1.5
覆盖范围:
全球
运营商:
太空探索技术公司
运营商所在国:
美国
制造商(研发单位):
太空探索技术公司
制造商所在国:
美国
使用方式:
暂无
Satellite Introduction
星链(Starlink)计划是由太空探索技术公司(SpaceX)提出的一个巨型低轨卫星互联网星座项目,计划在2019年至2024年间在太空搭建由约1.2万颗卫星组成的“星链”网络,其中1584颗将部署在地球上空550千米处的近地轨道,并从2020年开始工作。该卫星仍在工作。
2D Orbit Map
3D Orbit Map
Orbit Altitude Analysis Chart
Orbit Inclination Analysis Chart
Orbit Comprehensive Analysis Chart
View Comprehensive Chart
Conjunction Data List
Event ID Objects TCA Miss Dist (km) Collision Risk Probability Collision Risk Index (CRI) Action
CDM_260905-212704-915506-456321
AE3VA (64563)
2026-09-05T
21:27:21+0000
2.872 km
极远距离
1.413383E-6 低风险 0.38